EW0413 Weather Reports


time (UTC)temp
C
wind
direction
speed
KPH
gust
KPH
rain 1hr
cm
rain 24hr
cm
rain mn
cm
humidity
%
barometer
mb
20260906103035 20 91 0.0 1.6 0.00 0.00 0.00 94 1013.5
20260906101534 20 281 0.0 3.2 0.00 0.00 0.00 95 1013.5
20260906100034 20 293 0.0 1.6 0.00 0.00 0.00 94 1013.5
20260906094530 21 55 0.0 1.6 0.00 0.00 0.00 94 1013.4
20260906093044 21 295 0.0 4.8 0.00 0.00 0.00 93 1013.3
20260906091529 21 60 0.0 4.8 0.00 0.00 0.00 93 1013.2
20260906090035 21 32 0.0 1.6 0.00 0.00 0.00 93 1013.2
20260906084532 21 96 0.0 4.8 0.00 0.00 0.00 93 1013.2
20260906083011 21 298 0.0 4.8 0.00 0.00 0.00 93 1013.3
20260906081507 21 77 0.0 3.2 0.00 0.00 0.00 93 1013.2
20260906080057 21 1 0.0 4.8 0.00 0.00 0.00 93 1013.5
20260906074553 22 35 0.0 6.4 0.00 0.00 0.00 92 1013.4
20260906073031 22 77 0.0 1.6 0.00 0.00 0.00 93 1013.4
20260906071529 22 73 0.0 3.2 0.00 0.00 0.00 92 1013.2
20260906070012 22 63 0.0 1.6 0.00 0.00 0.00 92 1013.3
20260906064511 22 44 0.0 4.8 0.00 0.00 0.00 91 1013.4
20260906063055 22 122 0.0 4.8 0.00 0.00 0.00 91 1013.5
20260906061601 22 319 0.0 6.4 0.00 0.00 0.00 92 1013.4
20260906060032 22 146 0.0 4.8 0.00 0.00 0.00 94 1013.2
20260906054529 22 301 0.0 3.2 0.00 0.00 0.00 94 1013.0
20260906053013 22 77 0.0 6.4 0.00 0.00 0.00 95 1012.9
20260906051506 22 294 0.0 1.6 0.00 0.00 0.00 96 1012.5
20260906050045 21 63 0.0 4.8 0.00 0.00 0.00 97 1012.5
20260906044545 21 45 0.0 0.0 0.00 0.00 0.00 97 1012.4
20260906043027 21 338 0.0 0.0 0.00 0.00 0.00 97 1012.4
20260906041537 21 32 0.0 0.0 0.00 0.00 0.00 96 1012.3
20260906040007 21 317 0.0 3.2 0.00 0.00 0.00 96 1012.2
20260906034511 21 297 0.0 4.8 0.00 0.00 0.00 95 1012.1
20260906033048 21 319 0.0 6.4 0.00 0.00 0.00 95 1012.1
20260906031547 21 333 0.0 4.8 0.00 0.00 0.00 94 1012.1
20260906030034 21 113 0.0 6.4 0.00 0.00 0.00 93 1012.0
20260906024527 22 275 1.6 6.4 0.00 0.00 0.00 92 1012.0
20260906023007 22 42 3.2 9.7 0.00 0.00 0.00 91 1012.1
20260906021506 22 20 3.2 14.5 0.00 0.00 0.00 92 1012.3
20260906020048 22 338 3.2 19.3 0.00 0.00 0.00 91 1012.3
20260906014551 22 13 3.2 8.0 0.00 0.00 0.00 91 1012.3
20260906013028 22 296 4.8 12.9 0.00 0.00 0.00 91 1012.2
20260906011526 22 319 4.8 17.7 0.00 0.00 0.00 90 1012.0
20260906010033 22 360 6.4 17.7 0.00 0.00 0.00 90 1011.6
20260906004507 23 327 8.0 17.7 0.00 0.00 0.00 90 1011.2
20260906003005 23 303 6.4 17.7 0.00 0.00 0.00 90 1011.2
20260906001503 23 293 4.8 9.7 0.00 0.00 0.00 89 1011.3
20260906000001 23 302 3.2 11.3 0.00 0.00 0.00 89 1011.1
20260905234603 23 300 6.4 14.5 0.00 0.00 0.00 87 1011.1
20260905233059 24 31 3.2 12.9 0.00 0.00 0.00 88 1011.1
20260905231558 24 347 4.8 17.7 0.00 0.00 0.00 87 1011.0
20260905230045 25 327 4.8 16.1 0.00 0.00 0.00 86 1010.7
20260905224544 25 313 4.8 22.5 0.00 0.00 0.00 87 1010.6
20260905223030 25 25 8.0 19.3 0.00 0.00 0.00 86 1010.8
20260905221518 26 343 6.4 24.1 0.00 0.00 0.00 84 1010.7
20260905220059 26 55 9.7 20.9 0.00 0.00 0.00 84 1010.6
20260905214559 26 332 8.0 19.3 0.00 0.00 0.00 83 1010.4
20260905213051 26 323 3.2 20.9 0.00 0.00 0.00 83 1010.3
20260905211545 27 339 8.0 19.3 0.00 0.00 0.00 82 1010.2
20260905210021 27 286 6.4 16.1 0.00 0.00 0.00 81 1010.2
20260905204525 28 340 6.4 19.3 0.00 0.00 0.00 80 1010.2
20260905203008 28 39 8.0 14.5 0.00 0.00 0.00 79 1010.3
20260905201507 28 29 6.4 22.5 0.00 0.00 0.00 79 1010.2
20260905200007 28 320 8.0 17.7 0.00 0.00 0.00 80 1010.1
20260905194506 28 324 8.0 17.7 0.00 0.00 0.00 78 1010.2
20260905193005 29 340 4.8 12.9 0.00 0.00 0.00 78 1010.2
20260905191506 29 302 4.8 11.3 0.00 0.00 0.00 80 1010.4
20260905190005 29 321 3.2 11.3 0.00 0.00 0.00 80 1010.4
20260905184504 29 40 3.2 16.1 0.00 0.00 0.00 78 1010.4
20260905183114 30 309 3.2 17.7 0.00 0.00 0.00 78 1010.4
20260905181558 30 77 4.8 12.9 0.00 0.00 0.00 80 1010.2
20260905180058 30 11 4.8 14.5 0.00 0.00 0.00 81 1010.2
20260905174555 30 298 4.8 11.3 0.00 0.00 0.00 81 1010.2
20260905173053 30 287 6.4 16.1 0.00 0.00 0.00 83 1010.2
20260905171554 29 294 3.2 17.7 0.00 0.00 0.00 85 1010.4
20260905164604 29 307 3.2 11.3 0.00 0.00 0.00 84 1010.6
20260905163056 29 25 3.2 9.7 0.00 0.00 0.00 85 1010.6
20260905161555 29 51 3.2 11.3 0.00 0.00 0.00 85 1010.6
20260905154535 29 308 6.4 14.5 0.00 0.00 0.00 84 1010.4
20260905153032 29 319 3.2 11.3 0.00 0.00 0.00 86 1010.3
20260905151536 28 77 1.6 11.3 0.00 0.00 0.00 87 1010.1
20260905144512 28 299 1.6 9.7 0.00 0.00 0.00 89 1009.9
20260905143003 28 324 0.0 4.8 0.00 0.00 0.00 90 1009.7
20260905141541 27 301 1.6 6.4 0.00 0.00 0.00 91 1009.8
20260905140045 27 335 1.6 8.0 0.00 0.00 0.00 92 1010.2
20260905134523 26 303 3.2 9.7 0.00 0.00 0.00 93 1010.2
20260905133013 26 295 0.0 0.0 0.00 0.00 0.00 96 1009.9
20260905131615 25 319 0.0 1.6 0.00 0.00 0.00 96 1009.7
20260905130058 25 319 0.0 1.6 0.00 0.00 0.00 97 1009.5
20260905124556 25 319 0.0 0.0 0.00 0.00 0.00 98 1009.5
20260905123103 24 319 0.0 0.0 0.00 0.00 0.00 99 1009.4
20260905121555 23 319 0.0 0.0 0.00 0.00 0.00 98 1009.3
20260905120053 23 319 0.0 0.0 0.00 0.00 0.00 98 1009.2
20260905114551 23 319 0.0 0.0 0.00 0.00 0.00 98 1009.2
20260905113053 23 319 0.0 0.0 0.00 0.00 0.00 98 1009.2
20260905111536 23 319 0.0 0.0 0.00 0.00 0.00 98 1009.1
20260905110036 23 319 0.0 0.0 0.00 0.00 0.00 98 1008.9
20260905104515 23 297 0.0 0.0 0.00 0.00 0.00 98 1008.9